Regional Weather Roundup
Issued by NWS

Home | Current Version | Previous Version | Graphics & Text | Print | Product List | Glossary On
Versions: 1 2 3 4 5 6 7 8 9 10 11 12 13 14 15 16 17 18 19 20 21 22 23 24 25 26 27 28 29 30 31 32 33 34 35 36 37 38 39 40 41 42 43 44 45 46 47 48 49 50
923
ASUS43 KFSD 250010
RWRSD

WEATHER ROUNDUP FOR SOUTH DAKOTA
NATIONAL WEATHER SERVICE SIOUX FALLS SD
700 PM CDT FRI MAR 24 2017

NOTE: "FAIR" INDICATES FEW OR NO CLOUDS BELOW 12,000 FEET WITH NO
SIGNIFICANT WEATHER AND/OR OBSTRUCTIONS TO VISIBILITY.


SDZ001>005-009-010-012>017-250100-
NORTHWEST AND NORTH CENTRAL SOUTH DAKOTA

CITY           SKY/WX    TMP DP  RH WIND       PRES   REMARKS
BUFFALO          N/A     59  33  37 S16       29.94F
FAITH            N/A     58  35  42 E8        30.05F
MOBRIDGE       CLEAR     55  31  39 E9        30.08F
$$

SDZ012>016-024>037-041>051-057-063-072>074-250100-
SOUTHWEST AND SOUTH CENTRAL SOUTH DAKOTA

CITY           SKY/WX    TMP DP  RH WIND       PRES   REMARKS
RAPID CTY ARPT SUNNY     59  30  33 SE12      30.05S
PIERRE         CLEAR     53  32  44 E12       30.09S
CUSTER         SUNNY     49  25  39 SE8       30.08S
ELLSWORTH AFB  SUNNY     59  30  32 SE10      30.04F
PHILIP         SUNNY     59  32  36 E10       30.07S
PINE RIDGE     MOSUNNY   58  31  35 E12       30.08S
SPEARFISH      FAIR      55  27  33 SE10      30.04F
WINNER         FAIR      53  34  48 NE9       30.10R
$$

SDZ004>011-016>023-039-040-250100-
NORTHEAST SOUTH DAKOTA

CITY           SKY/WX    TMP DP  RH WIND       PRES   REMARKS
ABERDEEN       CLEAR     46  30  53 NE13      30.15F
WATERTOWN      CLOUDY    39  34  82 NE13      30.11S
BROOKINGS      CLOUDY    38  34  85 N13       30.10R
SISSETON         N/A     40  33  76 N14       30.16R
$$

SDZ017-020-022-023-036>040-048>070-250100-
SOUTHEAST SOUTH DAKOTA

CITY           SKY/WX    TMP DP  RH WIND       PRES   REMARKS
SIOUX FALLS    CLOUDY    40  36  86 NE17G26   30.09R
HURON          MOCLDY    45  34  65 N14       30.11S
CHAMBERLAIN    PTCLDY    52  36  55 NE9       30.10R
MITCHELL       CLOUDY    43  36  76 N13       30.11R
YANKTON        CLOUDY    43  37  81 N15       30.08R
$$

ABBREVIATIONS USED IN REMARKS
   TC - TEMPERATURE IN CELSIUS
  WCI - WIND CHILL INDEX
   HX - HEAT INDEX
  VSB - VISIBILITY





USA.gov is the U.S. government's official web portal to all federal, state and local government web resources and services.